Time,TemperatureF,DewpointF,PressureIn,WindDirection,WindDirectionDegrees,WindSpeedMPH,WindSpeedGustMPH,Humidity,HourlyPrecipIn,Conditions,Clouds,dailyrainin,SoftwareType,DateUTC
2013-01-13 00:04:00,27.9,25.3,29.96,North,351,5.0,5.0,90,0.00,,,0.00,Wunderground v.1.15,2013-01-13 06:04:00,
2013-01-13 00:09:00,27.8,25.2,29.97,NNW,343,4.0,4.0,90,0.00,,,0.00,Wunderground v.1.15,2013-01-13 06:09:00,
2013-01-13 00:16:00,27.6,25.1,29.96,NNW,336,3.0,6.0,90,0.00,,,0.00,Wunderground v.1.15,2013-01-13 06:16:00,
2013-01-13 00:22:00,27.3,24.8,29.94,NNW,331,5.0,7.0,90,0.00,,,0.00,Wunderground v.1.15,2013-01-13 06:22:00,
2013-01-13 00:27:00,27.2,24.7,29.95,NW,325,5.0,5.0,90,0.00,,,0.00,Wunderground v.1.15,2013-01-13 06:27:00,
2013-01-13 00:33:00,27.1,24.6,29.95,NNW,348,5.0,6.0,90,0.00,,,0.00,Wunderground v.1.15,2013-01-13 06:33:00,
2013-01-13 00:39:00,27.0,24.5,29.96,NW,324,5.0,7.0,90,0.00,,,0.00,Wunderground v.1.15,2013-01-13 06:39:00,
2013-01-13 00:45:00,26.9,24.1,29.97,NNW,338,5.0,9.0,89,0.00,,,0.00,Wunderground v.1.15,2013-01-13 06:45:00,
2013-01-13 00:52:00,26.7,23.9,29.96,NW,304,5.0,5.0,89,0.00,,,0.00,Wunderground v.1.15,2013-01-13 06:52:00,
2013-01-13 00:57:00,26.6,23.8,29.96,NNW,340,4.0,4.0,89,0.00,,,0.00,Wunderground v.1.15,2013-01-13 06:57:00,
2013-01-13 01:03:00,26.6,23.8,29.95,NNW,346,4.0,6.0,89,0.00,,,0.00,Wunderground v.1.15,2013-01-13 07:03:00,
2013-01-13 01:09:00,26.5,23.7,29.95,North,355,4.0,6.0,89,0.00,,,0.00,Wunderground v.1.15,2013-01-13 07:09:00,
2013-01-13 01:15:00,26.4,23.9,29.95,NNW,339,5.0,6.0,90,0.00,,,0.00,Wunderground v.1.15,2013-01-13 07:15:00,
2013-01-13 01:23:00,26.4,23.9,29.96,WSW,254,4.0,5.0,90,0.00,,,0.00,Wunderground v.1.15,2013-01-13 07:23:00,
2013-01-13 01:28:00,26.3,23.8,29.95,NNW,335,4.0,4.0,90,0.00,,,0.00,Wunderground v.1.15,2013-01-13 07:28:00,
2013-01-13 01:34:00,26.2,23.7,29.93,NNE,16,4.0,6.0,90,0.00,,,0.00,Wunderground v.1.15,2013-01-13 07:34:00,
2013-01-13 01:40:00,26.2,23.7,29.92,North,5,5.0,6.0,90,0.00,,,0.00,Wunderground v.1.15,2013-01-13 07:40:00,
2013-01-13 01:46:00,26.1,23.3,29.92,NNW,342,6.0,7.0,89,0.00,,,0.00,Wunderground v.1.15,2013-01-13 07:46:00,
2013-01-13 01:52:00,26.0,23.2,29.93,NNW,346,6.0,6.0,89,0.00,,,0.00,Wunderground v.1.15,2013-01-13 07:52:00,
2013-01-13 01:58:00,26.0,23.2,29.93,NNW,332,5.0,5.0,89,0.00,,,0.00,Wunderground v.1.15,2013-01-13 07:58:00,
2013-01-13 02:04:00,26.1,23.3,29.93,NNW,344,5.0,5.0,89,0.00,,,0.00,Wunderground v.1.15,2013-01-13 08:04:00,
2013-01-13 02:10:00,26.1,23.6,29.96,WSW,248,4.0,5.0,90,0.00,,,0.00,Wunderground v.1.15,2013-01-13 08:10:00,
2013-01-13 02:16:00,26.2,23.7,29.95,NNW,346,3.0,5.0,90,0.00,,,0.00,Wunderground v.1.15,2013-01-13 08:16:00,
2013-01-13 02:22:00,26.2,23.4,29.97,NNW,343,4.0,7.0,89,0.00,,,0.00,Wunderground v.1.15,2013-01-13 08:22:00,
2013-01-13 02:28:00,26.3,23.5,29.98,WSW,255,4.0,4.0,89,0.00,,,0.00,Wunderground v.1.15,2013-01-13 08:28:00,
2013-01-13 02:34:00,26.2,23.4,29.99,West,271,4.0,7.0,89,0.00,,,0.00,Wunderground v.1.15,2013-01-13 08:34:00,
2013-01-13 02:40:00,26.1,23.3,29.98,North,349,4.0,5.0,89,0.00,,,0.00,Wunderground v.1.15,2013-01-13 08:40:00,
2013-01-13 02:46:00,25.9,22.6,29.97,NNW,344,4.0,8.0,87,0.00,,,0.00,Wunderground v.1.15,2013-01-13 08:46:00,
2013-01-13 02:52:00,25.8,22.5,29.97,WNW,289,5.0,7.0,87,0.00,,,0.00,Wunderground v.1.15,2013-01-13 08:52:00,
2013-01-13 02:58:00,25.7,22.4,29.94,NNW,332,5.0,6.0,87,0.00,,,0.00,Wunderground v.1.15,2013-01-13 08:58:00,
2013-01-13 03:04:00,25.6,22.3,29.95,NNW,347,5.0,6.0,87,0.00,,,0.00,Wunderground v.1.15,2013-01-13 09:04:00,
2013-01-13 03:10:00,25.6,22.5,29.95,WSW,255,4.0,4.0,88,0.00,,,0.00,Wunderground v.1.15,2013-01-13 09:10:00,
2013-01-13 03:16:00,25.5,22.4,29.95,NNW,344,3.0,6.0,88,0.00,,,0.00,Wunderground v.1.15,2013-01-13 09:16:00,
2013-01-13 03:22:00,25.2,22.1,29.93,NW,325,4.0,6.0,88,0.00,,,0.00,Wunderground v.1.15,2013-01-13 09:22:00,
2013-01-13 03:28:00,25.2,22.1,29.95,North,355,4.0,6.0,88,0.00,,,0.00,Wunderground v.1.15,2013-01-13 09:28:00,
2013-01-13 03:34:00,25.2,22.1,29.96,North,349,4.0,6.0,88,0.00,,,0.00,Wunderground v.1.15,2013-01-13 09:34:00,
2013-01-13 03:40:00,25.2,22.1,29.97,West,281,3.0,4.0,88,0.00,,,0.00,Wunderground v.1.15,2013-01-13 09:40:00,
2013-01-13 03:46:00,25.2,22.1,29.96,WSW,257,3.0,4.0,88,0.00,,,0.00,Wunderground v.1.15,2013-01-13 09:46:00,
2013-01-13 03:52:00,25.0,21.9,29.96,WSW,256,4.0,7.0,88,0.00,,,0.00,Wunderground v.1.15,2013-01-13 09:52:00,
2013-01-13 03:58:00,25.0,21.9,29.97,West,273,4.0,4.0,88,0.00,,,0.00,Wunderground v.1.15,2013-01-13 09:58:00,
2013-01-13 04:04:00,25.0,21.9,29.97,West,273,3.0,5.0,88,0.00,,,0.00,Wunderground v.1.15,2013-01-13 10:04:00,
2013-01-13 04:10:00,24.8,21.5,29.98,West,281,4.0,7.0,87,0.00,,,0.00,Wunderground v.1.15,2013-01-13 10:10:00,
2013-01-13 04:16:00,24.7,21.4,30.00,WSW,251,4.0,7.0,87,0.00,,,0.00,Wunderground v.1.15,2013-01-13 10:16:00,
2013-01-13 04:22:00,24.6,21.3,30.00,NW,311,4.0,7.0,87,0.00,,,0.00,Wunderground v.1.15,2013-01-13 10:22:00,
2013-01-13 04:28:00,24.6,21.3,30.01,West,262,4.0,5.0,87,0.00,,,0.00,Wunderground v.1.15,2013-01-13 10:28:00,
2013-01-13 04:34:00,24.6,21.3,30.01,West,260,4.0,6.0,87,0.00,,,0.00,Wunderground v.1.15,2013-01-13 10:34:00,
2013-01-13 04:40:00,24.5,21.2,30.02,WSW,254,4.0,5.0,87,0.00,,,0.00,Wunderground v.1.15,2013-01-13 10:40:00,
2013-01-13 04:45:00,24.4,21.1,30.02,NW,317,4.0,6.0,87,0.00,,,0.00,Wunderground v.1.15,2013-01-13 10:45:00,
2013-01-13 04:52:00,24.4,21.1,30.01,West,279,4.0,4.0,87,0.00,,,0.00,Wunderground v.1.15,2013-01-13 10:52:00,
2013-01-13 04:58:00,24.3,21.0,30.02,West,279,4.0,4.0,87,0.00,,,0.00,Wunderground v.1.15,2013-01-13 10:58:00,
2013-01-13 05:03:00,24.3,21.0,30.01,WSW,252,3.0,4.0,87,0.00,,,0.00,Wunderground v.1.15,2013-01-13 11:03:00,
2013-01-13 05:10:00,24.3,21.0,30.02,NW,315,3.0,3.0,87,0.00,,,0.00,Wunderground v.1.15,2013-01-13 11:10:00,
2013-01-13 05:15:00,24.2,20.9,30.02,NW,310,4.0,6.0,87,0.00,,,0.00,Wunderground v.1.15,2013-01-13 11:15:00,
2013-01-13 05:22:00,24.2,20.9,30.02,West,261,4.0,6.0,87,0.00,,,0.00,Wunderground v.1.15,2013-01-13 11:22:00,
2013-01-13 05:28:00,24.1,20.8,30.01,WSW,243,4.0,4.0,87,0.00,,,0.00,Wunderground v.1.15,2013-01-13 11:28:00,
2013-01-13 05:33:00,24.0,20.7,30.01,West,279,3.0,6.0,87,0.00,,,0.00,Wunderground v.1.15,2013-01-13 11:33:00,
2013-01-13 05:39:00,23.9,20.6,30.02,North,355,3.0,4.0,87,0.00,,,0.00,Wunderground v.1.15,2013-01-13 11:39:00,
2013-01-13 05:45:00,23.8,20.5,30.02,West,259,4.0,5.0,87,0.00,,,0.00,Wunderground v.1.15,2013-01-13 11:45:00,
2013-01-13 05:52:00,23.8,20.5,30.02,NNW,341,4.0,7.0,87,0.00,,,0.00,Wunderground v.1.15,2013-01-13 11:52:00,
2013-01-13 05:57:00,23.8,20.5,30.01,NW,326,5.0,5.0,87,0.00,,,0.00,Wunderground v.1.15,2013-01-13 11:57:00,
2013-01-13 06:03:00,23.7,20.4,30.01,North,9,5.0,5.0,87,0.00,,,0.00,Wunderground v.1.15,2013-01-13 12:03:00,
2013-01-13 06:09:00,23.6,20.3,30.00,NW,322,4.0,5.0,87,0.00,,,0.00,Wunderground v.1.15,2013-01-13 12:09:00,
2013-01-13 06:15:00,23.6,20.3,30.02,WSW,249,4.0,5.0,87,0.00,,,0.00,Wunderground v.1.15,2013-01-13 12:15:00,
2013-01-13 06:20:00,23.7,20.7,30.03,West,281,3.0,5.0,88,0.00,,,0.00,Wunderground v.1.15,2013-01-13 12:20:00,
2013-01-13 06:26:00,23.6,20.6,30.04,WSW,254,3.0,5.0,88,0.00,,,0.00,Wunderground v.1.15,2013-01-13 12:26:00,
2013-01-13 06:33:00,23.6,20.6,30.03,West,274,3.0,5.0,88,0.00,,,0.00,Wunderground v.1.15,2013-01-13 12:33:00,
2013-01-13 06:38:00,23.5,20.2,30.03,WSW,257,3.0,4.0,87,0.00,,,0.00,Wunderground v.1.15,2013-01-13 12:38:00,
2013-01-13 06:44:00,23.4,20.1,30.05,WSW,255,3.0,4.0,87,0.00,,,0.00,Wunderground v.1.15,2013-01-13 12:44:00,
2013-01-13 06:50:00,23.4,20.1,30.05,West,269,3.0,4.0,87,0.00,,,0.00,Wunderground v.1.15,2013-01-13 12:50:00,
2013-01-13 06:56:00,23.4,20.4,30.04,West,262,2.0,4.0,88,0.00,,,0.00,Wunderground v.1.15,2013-01-13 12:56:00,
2013-01-13 07:03:00,23.3,20.3,30.05,West,270,3.0,4.0,88,0.00,,,0.00,Wunderground v.1.15,2013-01-13 13:03:00,
2013-01-13 07:08:00,23.3,20.3,30.05,West,277,3.0,3.0,88,0.00,,,0.00,Wunderground v.1.15,2013-01-13 13:08:00,
2013-01-13 07:14:00,23.3,20.3,30.05,West,262,2.0,5.0,88,0.00,,,0.00,Wunderground v.1.15,2013-01-13 13:14:00,
2013-01-13 07:20:00,23.1,20.1,30.06,West,270,3.0,4.0,88,0.00,,,0.00,Wunderground v.1.15,2013-01-13 13:20:00,
2013-01-13 07:26:00,23.0,20.0,30.07,WSW,257,3.0,4.0,88,0.00,,,0.00,Wunderground v.1.15,2013-01-13 13:26:00,
2013-01-13 07:33:00,22.9,19.9,30.05,NNW,342,3.0,5.0,88,0.00,,,0.00,Wunderground v.1.15,2013-01-13 13:33:00,
2013-01-13 07:38:00,22.9,19.9,30.05,West,275,3.0,3.0,88,0.00,,,0.00,Wunderground v.1.15,2013-01-13 13:38:00,
2013-01-13 07:44:00,22.8,19.8,30.04,NW,321,4.0,4.0,88,0.00,,,0.00,Wunderground v.1.15,2013-01-13 13:44:00,
2013-01-13 07:50:00,22.7,19.7,30.05,WNW,302,3.0,4.0,88,0.00,,,0.00,Wunderground v.1.15,2013-01-13 13:50:00,
2013-01-13 07:56:00,22.8,19.8,30.07,WNW,282,3.0,4.0,88,0.00,,,0.00,Wunderground v.1.15,2013-01-13 13:56:00,
2013-01-13 08:02:00,22.8,19.8,30.07,WSW,255,3.0,4.0,88,0.00,,,0.00,Wunderground v.1.15,2013-01-13 14:02:00,
2013-01-13 08:08:00,22.9,19.9,30.08,WSW,248,4.0,6.0,88,0.00,,,0.00,Wunderground v.1.15,2013-01-13 14:08:00,
2013-01-13 08:14:00,22.9,19.6,30.08,WNW,295,4.0,6.0,87,0.00,,,0.00,Wunderground v.1.15,2013-01-13 14:14:00,
2013-01-13 08:20:00,22.8,19.5,30.06,West,271,3.0,5.0,87,0.00,,,0.00,Wunderground v.1.15,2013-01-13 14:20:00,
2013-01-13 08:26:00,22.8,19.8,30.03,WSW,251,3.0,5.0,88,0.00,,,0.00,Wunderground v.1.15,2013-01-13 14:26:00,
2013-01-13 08:32:00,22.6,19.3,30.05,West,266,3.0,7.0,87,0.00,,,0.00,Wunderground v.1.15,2013-01-13 14:32:00,
2013-01-13 08:38:00,22.5,19.2,30.06,WNW,284,4.0,4.0,87,0.00,,,0.00,Wunderground v.1.15,2013-01-13 14:38:00,
2013-01-13 08:44:00,22.6,19.0,30.07,West,261,4.0,5.0,86,0.00,,,0.00,Wunderground v.1.15,2013-01-13 14:44:00,
2013-01-13 08:50:00,22.6,18.8,30.08,West,274,4.0,6.0,85,0.00,,,0.00,Wunderground v.1.15,2013-01-13 14:50:00,
2013-01-13 08:56:00,22.7,18.9,30.08,West,277,4.0,6.0,85,0.00,,,0.00,Wunderground v.1.15,2013-01-13 14:56:00,
2013-01-13 09:02:00,22.8,19.0,30.09,WSW,241,4.0,5.0,85,0.00,,,0.00,Wunderground v.1.15,2013-01-13 15:02:00,
2013-01-13 09:08:00,22.8,19.0,30.09,West,263,4.0,4.0,85,0.00,,,0.00,Wunderground v.1.15,2013-01-13 15:08:00,
2013-01-13 09:14:00,22.6,18.5,30.10,West,278,5.0,6.0,84,0.00,,,0.00,Wunderground v.1.15,2013-01-13 15:14:00,
2013-01-13 09:20:00,22.4,18.3,30.09,WNW,293,5.0,5.0,84,0.00,,,0.00,Wunderground v.1.15,2013-01-13 15:20:00,
2013-01-13 09:26:00,22.2,18.1,30.09,West,273,5.0,8.0,84,0.00,,,0.00,Wunderground v.1.15,2013-01-13 15:26:00,
2013-01-13 09:32:00,22.0,17.6,30.11,West,277,5.0,5.0,83,0.00,,,0.00,Wunderground v.1.15,2013-01-13 15:32:00,
2013-01-13 09:38:00,22.0,17.9,30.11,WSW,240,4.0,6.0,84,0.00,,,0.00,Wunderground v.1.15,2013-01-13 15:38:00,
2013-01-13 09:43:00,21.8,17.7,30.09,West,263,5.0,8.0,84,0.00,,,0.00,Wunderground v.1.15,2013-01-13 15:43:00,
2013-01-13 09:50:00,21.6,17.5,30.09,West,278,5.0,5.0,84,0.00,,,0.00,Wunderground v.1.15,2013-01-13 15:50:00,
2013-01-13 09:56:00,21.3,16.9,30.09,West,263,5.0,7.0,83,0.00,,,0.00,Wunderground v.1.15,2013-01-13 15:56:00,
2013-01-13 10:02:00,21.2,16.8,30.09,WNW,290,5.0,7.0,83,0.00,,,0.00,Wunderground v.1.15,2013-01-13 16:02:00,
2013-01-13 10:08:00,21.1,16.7,30.10,North,355,5.0,5.0,83,0.00,,,0.00,Wunderground v.1.15,2013-01-13 16:08:00,
2013-01-13 10:13:00,21.1,17.0,30.09,WNW,284,5.0,6.0,84,0.00,,,0.00,Wunderground v.1.15,2013-01-13 16:13:00,
2013-01-13 10:19:00,20.9,16.8,30.10,NW,310,5.0,5.0,84,0.00,,,0.00,Wunderground v.1.15,2013-01-13 16:19:00,
2013-01-13 10:25:00,20.8,16.5,30.09,West,270,5.0,8.0,83,0.00,,,0.00,Wunderground v.1.15,2013-01-13 16:25:00,
2013-01-13 10:32:00,20.8,16.5,30.08,WNW,288,5.0,7.0,83,0.00,,,0.00,Wunderground v.1.15,2013-01-13 16:32:00,
2013-01-13 10:37:00,20.7,16.1,30.07,West,276,5.0,5.0,82,0.00,,,0.00,Wunderground v.1.15,2013-01-13 16:37:00,
2013-01-13 10:43:00,20.4,15.5,30.09,WNW,285,6.0,6.0,81,0.00,,,0.00,Wunderground v.1.15,2013-01-13 16:43:00,
2013-01-13 10:49:00,20.4,15.5,30.09,WSW,253,5.0,8.0,81,0.00,,,0.00,Wunderground v.1.15,2013-01-13 16:49:00,
2013-01-13 10:55:00,20.3,15.7,30.07,WSW,244,5.0,8.0,82,0.00,,,0.00,Wunderground v.1.15,2013-01-13 16:55:00,
2013-01-13 11:02:00,20.3,15.7,30.06,West,265,4.0,5.0,82,0.00,,,0.00,Wunderground v.1.15,2013-01-13 17:02:00,
2013-01-13 11:07:00,20.2,15.6,30.06,West,270,5.0,5.0,82,0.00,,,0.00,Wunderground v.1.15,2013-01-13 17:07:00,
2013-01-13 11:13:00,20.4,16.3,30.06,West,266,4.0,5.0,84,0.00,,,0.00,Wunderground v.1.15,2013-01-13 17:13:00,
2013-01-13 11:19:00,20.5,16.4,30.07,West,265,4.0,4.0,84,0.00,,,0.00,Wunderground v.1.15,2013-01-13 17:19:00,
2013-01-13 11:25:00,20.4,16.3,30.07,NNW,327,5.0,5.0,84,0.00,,,0.00,Wunderground v.1.15,2013-01-13 17:25:00,
2013-01-13 11:32:00,20.2,15.9,30.08,WNW,287,6.0,9.0,83,0.00,,,0.00,Wunderground v.1.15,2013-01-13 17:32:00,
2013-01-13 11:37:00,20.2,15.9,30.08,North,355,6.0,6.0,83,0.00,,,0.00,Wunderground v.1.15,2013-01-13 17:37:00,
2013-01-13 11:43:00,20.0,15.4,30.08,West,273,5.0,7.0,82,0.00,,,0.00,Wunderground v.1.15,2013-01-13 17:43:00,
2013-01-13 11:49:00,19.8,14.9,30.09,West,266,6.0,7.0,81,0.00,,,0.00,Wunderground v.1.15,2013-01-13 17:49:00,
2013-01-13 11:55:00,19.8,15.2,30.09,West,259,6.0,7.0,82,0.00,,,0.00,Wunderground v.1.15,2013-01-13 17:55:00,
2013-01-13 12:02:00,19.6,14.7,30.09,West,277,6.0,6.0,81,0.00,,,0.00,Wunderground v.1.15,2013-01-13 18:02:00,
2013-01-13 12:07:00,19.5,14.6,30.10,West,268,6.0,7.0,81,0.00,,,0.00,Wunderground v.1.15,2013-01-13 18:07:00,
2013-01-13 12:13:00,19.5,14.9,30.09,West,273,6.0,7.0,82,0.00,,,0.00,Wunderground v.1.15,2013-01-13 18:13:00,
2013-01-13 12:18:00,19.5,14.6,30.11,West,281,5.0,6.0,81,0.00,,,0.00,Wunderground v.1.15,2013-01-13 18:18:00,
2013-01-13 12:24:00,19.4,14.5,30.09,WSW,254,5.0,6.0,81,0.00,,,0.00,Wunderground v.1.15,2013-01-13 18:24:00,
2013-01-13 12:30:00,19.4,14.5,30.10,West,272,5.0,9.0,81,0.00,,,0.00,Wunderground v.1.15,2013-01-13 18:30:00,
2013-01-13 12:36:00,19.3,14.4,30.09,WNW,292,6.0,9.0,81,0.00,,,0.00,Wunderground v.1.15,2013-01-13 18:36:00,
2013-01-13 12:43:00,19.1,14.2,30.09,NW,304,6.0,8.0,81,0.00,,,0.00,Wunderground v.1.15,2013-01-13 18:43:00,
2013-01-13 12:48:00,19.1,14.2,30.09,West,269,5.0,5.0,81,0.00,,,0.00,Wunderground v.1.15,2013-01-13 18:48:00,
2013-01-13 12:54:00,19.0,14.1,30.08,West,267,5.0,5.0,81,0.00,,,0.00,Wunderground v.1.15,2013-01-13 18:54:00,
2013-01-13 13:00:00,19.2,14.6,30.09,West,279,5.0,5.0,82,0.00,,,0.00,Wunderground v.1.15,2013-01-13 19:00:00,
2013-01-13 13:06:00,19.2,14.3,30.09,WNW,287,4.0,5.0,81,0.00,,,0.00,Wunderground v.1.15,2013-01-13 19:06:00,
2013-01-13 13:13:00,19.1,14.5,30.09,West,266,4.0,6.0,82,0.00,,,0.00,Wunderground v.1.15,2013-01-13 19:13:00,
2013-01-13 13:18:00,19.1,14.2,30.09,WNW,302,4.0,4.0,81,0.00,,,0.00,Wunderground v.1.15,2013-01-13 19:18:00,
2013-01-13 13:24:00,19.1,14.2,30.09,WNW,296,5.0,6.0,81,0.00,,,0.00,Wunderground v.1.15,2013-01-13 19:24:00,
2013-01-13 13:30:00,19.5,14.3,30.10,West,266,5.0,7.0,80,0.00,,,0.00,Wunderground v.1.15,2013-01-13 19:30:00,
2013-01-13 13:36:00,19.5,14.3,30.10,West,265,5.0,7.0,80,0.00,,,0.00,Wunderground v.1.15,2013-01-13 19:36:00,
2013-01-13 13:42:00,19.3,13.9,30.09,West,281,5.0,6.0,79,0.00,,,0.00,Wunderground v.1.15,2013-01-13 19:42:00,
2013-01-13 13:48:00,19.8,14.9,30.10,West,259,5.0,5.0,81,0.00,,,0.00,Wunderground v.1.15,2013-01-13 19:48:00,
2013-01-13 13:54:00,19.5,13.5,30.10,WNW,284,5.0,7.0,77,0.00,,,0.00,Wunderground v.1.15,2013-01-13 19:54:00,
2013-01-13 14:00:00,19.1,13.4,30.09,WNW,290,5.0,6.0,78,0.00,,,0.00,Wunderground v.1.15,2013-01-13 20:00:00,
2013-01-13 14:06:00,19.1,13.7,30.10,WSW,245,5.0,9.0,79,0.00,,,0.00,Wunderground v.1.15,2013-01-13 20:06:00,
2013-01-13 14:12:00,19.4,14.2,30.10,WNW,298,6.0,7.0,80,0.00,,,0.00,Wunderground v.1.15,2013-01-13 20:12:00,
2013-01-13 14:18:00,19.3,14.1,30.10,WNW,292,5.0,6.0,80,0.00,,,0.00,Wunderground v.1.15,2013-01-13 20:18:00,
2013-01-13 14:24:00,18.9,13.7,30.10,West,264,5.0,6.0,80,0.00,,,0.00,Wunderground v.1.15,2013-01-13 20:24:00,
2013-01-13 14:30:00,18.8,13.7,30.10,WNW,284,6.0,10.0,80,0.00,,,0.00,Wunderground v.1.15,2013-01-13 20:30:00,
2013-01-13 14:36:00,18.8,13.7,30.11,WSW,244,6.0,10.0,80,0.00,,,0.00,Wunderground v.1.15,2013-01-13 20:36:00,
2013-01-13 14:43:00,18.8,13.7,30.11,WNW,300,6.0,8.0,80,0.00,,,0.00,Wunderground v.1.15,2013-01-13 20:43:00,
2013-01-13 14:48:00,18.8,13.7,30.12,WNW,291,6.0,6.0,80,0.00,,,0.00,Wunderground v.1.15,2013-01-13 20:48:00,
2013-01-13 14:54:00,18.7,13.3,30.12,West,267,6.0,7.0,79,0.00,,,0.00,Wunderground v.1.15,2013-01-13 20:54:00,
2013-01-13 15:00:00,18.5,13.1,30.12,NW,304,6.0,7.0,79,0.00,,,0.00,Wunderground v.1.15,2013-01-13 21:00:00,
2013-01-13 15:06:00,18.5,13.4,30.13,WSW,250,6.0,8.0,80,0.00,,,0.00,Wunderground v.1.15,2013-01-13 21:06:00,
2013-01-13 15:13:00,18.5,13.4,30.12,West,267,6.0,8.0,80,0.00,,,0.00,Wunderground v.1.15,2013-01-13 21:13:00,
2013-01-13 15:18:00,18.6,13.5,30.12,West,271,5.0,7.0,80,0.00,,,0.00,Wunderground v.1.15,2013-01-13 21:18:00,
2013-01-13 15:24:00,18.6,13.5,30.12,WNW,282,5.0,7.0,80,0.00,,,0.00,Wunderground v.1.15,2013-01-13 21:24:00,
2013-01-13 15:30:00,18.6,13.7,30.13,West,271,5.0,6.0,81,0.00,,,0.00,Wunderground v.1.15,2013-01-13 21:30:00,
2013-01-13 15:36:00,18.7,13.6,30.13,WNW,290,5.0,8.0,80,0.00,,,0.00,Wunderground v.1.15,2013-01-13 21:36:00,
2013-01-13 15:43:00,18.6,13.2,30.14,WNW,287,6.0,6.0,79,0.00,,,0.00,Wunderground v.1.15,2013-01-13 21:43:00,
2013-01-13 15:48:00,18.5,13.1,30.15,West,272,6.0,6.0,79,0.00,,,0.00,Wunderground v.1.15,2013-01-13 21:48:00,
2013-01-13 15:54:00,18.5,13.1,30.15,WNW,292,6.0,6.0,79,0.00,,,0.00,Wunderground v.1.15,2013-01-13 21:54:00,
2013-01-13 16:00:00,18.4,13.0,30.16,WSW,255,6.0,8.0,79,0.00,,,0.00,Wunderground v.1.15,2013-01-13 22:00:00,
2013-01-13 16:06:00,18.3,12.6,30.17,WSW,252,6.0,8.0,78,0.00,,,0.00,Wunderground v.1.15,2013-01-13 22:06:00,
2013-01-13 16:13:00,18.2,12.5,30.17,SW,236,7.0,7.0,78,0.00,,,0.00,Wunderground v.1.15,2013-01-13 22:13:00,
2013-01-13 16:18:00,18.2,12.8,30.17,West,259,6.0,14.0,79,0.00,,,0.00,Wunderground v.1.15,2013-01-13 22:18:00,
2013-01-13 16:24:00,18.2,12.8,30.17,WSW,246,6.0,14.0,79,0.00,,,0.00,Wunderground v.1.15,2013-01-13 22:24:00,
2013-01-13 16:30:00,18.2,12.8,30.17,West,264,6.0,6.0,79,0.00,,,0.00,Wunderground v.1.15,2013-01-13 22:30:00,
2013-01-13 16:36:00,18.3,13.2,30.17,West,263,5.0,6.0,80,0.00,,,0.00,Wunderground v.1.15,2013-01-13 22:36:00,
2013-01-13 16:42:00,18.4,13.0,30.18,WNW,302,5.0,6.0,79,0.00,,,0.00,Wunderground v.1.15,2013-01-13 22:42:00,
2013-01-13 16:48:00,18.4,13.5,30.18,West,266,5.0,5.0,81,0.00,,,0.00,Wunderground v.1.15,2013-01-13 22:48:00,
2013-01-13 16:54:00,18.5,13.6,30.18,West,266,4.0,10.0,81,0.00,,,0.00,Wunderground v.1.15,2013-01-13 22:54:00,
2013-01-13 17:00:00,18.4,13.0,30.19,West,265,5.0,5.0,79,0.00,,,0.00,Wunderground v.1.15,2013-01-13 23:00:00,
2013-01-13 17:06:00,18.4,13.0,30.19,West,281,5.0,7.0,79,0.00,,,0.00,Wunderground v.1.15,2013-01-13 23:06:00,
2013-01-13 17:12:00,18.4,13.3,30.19,West,271,5.0,7.0,80,0.00,,,0.00,Wunderground v.1.15,2013-01-13 23:12:00,
2013-01-13 17:18:00,18.3,12.9,30.21,WNW,283,5.0,5.0,79,0.00,,,0.00,Wunderground v.1.15,2013-01-13 23:18:00,
2013-01-13 17:24:00,18.4,13.3,30.22,West,278,5.0,10.0,80,0.00,,,0.00,Wunderground v.1.15,2013-01-13 23:24:00,
2013-01-13 17:30:00,18.3,12.9,30.22,West,277,5.0,5.0,79,0.00,,,0.00,Wunderground v.1.15,2013-01-13 23:30:00,
2013-01-13 17:36:00,18.2,12.5,30.22,West,266,4.0,9.0,78,0.00,,,0.00,Wunderground v.1.15,2013-01-13 23:36:00,
2013-01-13 17:42:00,17.9,12.5,30.22,West,277,6.0,7.0,79,0.00,,,0.00,Wunderground v.1.15,2013-01-13 23:42:00,
2013-01-13 17:48:00,17.7,12.0,30.22,West,269,5.0,6.0,78,0.00,,,0.00,Wunderground v.1.15,2013-01-13 23:48:00,
2013-01-13 17:54:00,17.5,11.8,30.23,West,261,5.0,12.0,78,0.00,,,0.00,Wunderground v.1.15,2013-01-13 23:54:00,
2013-01-13 18:00:00,17.4,11.7,30.23,West,262,6.0,6.0,78,0.00,,,0.00,Wunderground v.1.15,2013-01-14 00:00:00,
2013-01-13 18:06:00,17.3,11.6,30.24,West,269,6.0,8.0,78,0.00,,,0.00,Wunderground v.1.15,2013-01-14 00:06:00,
2013-01-13 18:12:00,17.2,11.5,30.24,West,279,6.0,7.0,78,0.00,,,0.00,Wunderground v.1.15,2013-01-14 00:12:00,
2013-01-13 18:18:00,17.0,11.0,30.24,WSW,249,6.0,6.0,77,0.00,,,0.00,Wunderground v.1.15,2013-01-14 00:18:00,
2013-01-13 18:24:00,16.8,11.1,30.24,West,264,6.0,10.0,78,0.00,,,0.00,Wunderground v.1.15,2013-01-14 00:24:00,
2013-01-13 18:30:00,16.8,11.1,30.24,West,271,5.0,6.0,78,0.00,,,0.00,Wunderground v.1.15,2013-01-14 00:30:00,
2013-01-13 18:36:00,16.8,11.1,30.25,West,280,5.0,6.0,78,0.00,,,0.00,Wunderground v.1.15,2013-01-14 00:36:00,
2013-01-13 18:42:00,16.9,11.5,30.25,West,259,5.0,7.0,79,0.00,,,0.00,Wunderground v.1.15,2013-01-14 00:42:00,
2013-01-13 18:48:00,17.0,11.6,30.25,West,271,5.0,5.0,79,0.00,,,0.00,Wunderground v.1.15,2013-01-14 00:48:00,
2013-01-13 18:54:00,17.0,11.9,30.24,WNW,283,5.0,8.0,80,0.00,,,0.00,Wunderground v.1.15,2013-01-14 00:54:00,
2013-01-13 19:00:00,17.0,11.6,30.24,WNW,291,4.0,5.0,79,0.00,,,0.00,Wunderground v.1.15,2013-01-14 01:00:00,
2013-01-13 19:06:00,17.0,11.6,30.24,West,261,5.0,6.0,79,0.00,,,0.00,Wunderground v.1.15,2013-01-14 01:06:00,
2013-01-13 19:12:00,16.9,11.5,30.25,WNW,284,5.0,8.0,79,0.00,,,0.00,Wunderground v.1.15,2013-01-14 01:12:00,
2013-01-13 19:18:00,16.8,11.1,30.25,West,281,5.0,5.0,78,0.00,,,0.00,Wunderground v.1.15,2013-01-14 01:18:00,
2013-01-13 19:24:00,16.6,10.9,30.25,West,261,5.0,9.0,78,0.00,,,0.00,Wunderground v.1.15,2013-01-14 01:24:00,
2013-01-13 19:30:00,16.5,10.8,30.26,NW,309,6.0,6.0,78,0.00,,,0.00,Wunderground v.1.15,2013-01-14 01:30:00,
2013-01-13 19:36:00,16.4,10.4,30.26,West,273,6.0,8.0,77,0.00,,,0.00,Wunderground v.1.15,2013-01-14 01:36:00,
2013-01-13 19:42:00,16.2,10.5,30.26,WNW,293,5.0,7.0,78,0.00,,,0.00,Wunderground v.1.15,2013-01-14 01:42:00,
2013-01-13 19:48:00,16.1,10.4,30.26,WSW,255,4.0,10.0,78,0.00,,,0.00,Wunderground v.1.15,2013-01-14 01:48:00,
2013-01-13 19:54:00,16.0,10.6,30.26,NW,310,4.0,10.0,79,0.00,,,0.00,Wunderground v.1.15,2013-01-14 01:54:00,
2013-01-13 20:00:00,15.9,10.5,30.27,NW,315,4.0,6.0,79,0.00,,,0.00,Wunderground v.1.15,2013-01-14 02:00:00,
2013-01-13 20:06:00,15.8,10.2,30.27,WSW,242,5.0,7.0,78,0.00,,,0.00,Wunderground v.1.15,2013-01-14 02:06:00,
2013-01-13 20:12:00,15.7,10.3,30.27,West,267,5.0,8.0,79,0.00,,,0.00,Wunderground v.1.15,2013-01-14 02:12:00,
2013-01-13 20:18:00,15.7,10.1,30.27,West,259,5.0,5.0,78,0.00,,,0.00,Wunderground v.1.15,2013-01-14 02:18:00,
2013-01-13 20:24:00,15.7,10.1,30.27,West,278,5.0,8.0,78,0.00,,,0.00,Wunderground v.1.15,2013-01-14 02:24:00,
2013-01-13 20:30:00,15.6,10.2,30.27,WNW,289,4.0,6.0,79,0.00,,,0.00,Wunderground v.1.15,2013-01-14 02:30:00,
2013-01-13 20:36:00,15.5,9.9,30.28,WNW,284,5.0,6.0,78,0.00,,,0.00,Wunderground v.1.15,2013-01-14 02:36:00,
2013-01-13 20:42:00,15.5,10.1,30.28,West,273,5.0,7.0,79,0.00,,,0.00,Wunderground v.1.15,2013-01-14 02:42:00,
2013-01-13 20:47:00,15.5,10.1,30.28,West,280,5.0,5.0,79,0.00,,,0.00,Wunderground v.1.15,2013-01-14 02:47:00,
2013-01-13 20:54:00,15.4,10.1,30.28,West,261,4.0,5.0,79,0.00,,,0.00,Wunderground v.1.15,2013-01-14 02:54:00,
2013-01-13 20:59:00,15.4,10.1,30.28,West,261,4.0,6.0,79,0.00,,,0.00,Wunderground v.1.15,2013-01-14 02:59:00,
2013-01-13 21:06:00,15.3,10.0,30.28,West,260,5.0,7.0,79,0.00,,,0.00,Wunderground v.1.15,2013-01-14 03:06:00,
2013-01-13 21:12:00,15.3,10.0,30.28,West,259,4.0,5.0,79,0.00,,,0.00,Wunderground v.1.15,2013-01-14 03:12:00,
2013-01-13 21:17:00,15.3,10.0,30.29,West,271,5.0,5.0,79,0.00,,,0.00,Wunderground v.1.15,2013-01-14 03:17:00,
2013-01-13 21:24:00,15.2,10.1,30.29,WSW,252,4.0,10.0,80,0.00,,,0.00,Wunderground v.1.15,2013-01-14 03:24:00,
2013-01-13 21:29:00,15.2,9.9,30.29,West,280,4.0,4.0,79,0.00,,,0.00,Wunderground v.1.15,2013-01-14 03:29:00,
2013-01-13 21:35:00,15.1,9.8,30.29,West,277,5.0,5.0,79,0.00,,,0.00,Wunderground v.1.15,2013-01-14 03:35:00,
2013-01-13 21:42:00,15.1,10.0,30.29,West,278,4.0,10.0,80,0.00,,,0.00,Wunderground v.1.15,2013-01-14 03:42:00,
2013-01-13 21:47:00,15.0,9.7,30.29,WSW,250,4.0,4.0,79,0.00,,,0.00,Wunderground v.1.15,2013-01-14 03:47:00,
2013-01-13 21:53:00,15.0,9.7,30.28,West,261,5.0,9.0,79,0.00,,,0.00,Wunderground v.1.15,2013-01-14 03:53:00,
2013-01-13 21:59:00,14.9,9.6,30.28,WSW,257,4.0,6.0,79,0.00,,,0.00,Wunderground v.1.15,2013-01-14 03:59:00,
2013-01-13 22:05:00,14.9,9.8,30.28,West,263,4.0,6.0,80,0.00,,,0.00,Wunderground v.1.15,2013-01-14 04:05:00,
2013-01-13 22:12:00,14.8,9.7,30.29,West,265,4.0,4.0,80,0.00,,,0.00,Wunderground v.1.15,2013-01-14 04:12:00,
2013-01-13 22:18:00,14.8,9.7,30.29,West,266,4.0,4.0,80,0.00,,,0.00,Wunderground v.1.15,2013-01-14 04:18:00,
2013-01-13 22:24:00,14.8,9.7,30.29,WNW,300,4.0,5.0,80,0.00,,,0.00,Wunderground v.1.15,2013-01-14 04:24:00,
2013-01-13 22:30:00,14.8,9.7,30.29,West,263,4.0,4.0,80,0.00,,,0.00,Wunderground v.1.15,2013-01-14 04:30:00,
2013-01-13 22:36:00,14.8,9.7,30.29,WSW,257,4.0,4.0,80,0.00,,,0.00,Wunderground v.1.15,2013-01-14 04:36:00,
2013-01-13 22:42:00,14.7,9.6,30.29,West,266,4.0,6.0,80,0.00,,,0.00,Wunderground v.1.15,2013-01-14 04:42:00,
2013-01-13 22:48:00,14.7,9.6,30.30,WSW,254,4.0,4.0,80,0.00,,,0.00,Wunderground v.1.15,2013-01-14 04:48:00,
2013-01-13 22:54:00,14.7,9.6,30.30,WSW,257,4.0,6.0,80,0.00,,,0.00,Wunderground v.1.15,2013-01-14 04:54:00,
2013-01-13 23:01:00,14.8,9.7,30.30,WSW,245,4.0,6.0,80,0.00,,,0.00,Wunderground v.1.15,2013-01-14 05:01:00,
2013-01-13 23:03:00,14.7,9.6,30.30,West,275,4.0,6.0,80,0.00,,,0.00,Wunderground v.1.15,2013-01-14 05:03:00,
2013-01-13 23:06:00,14.7,9.6,30.30,West,268,4.0,6.0,80,0.00,,,0.00,Wunderground v.1.15,2013-01-14 05:06:00,
2013-01-13 23:13:00,14.7,9.6,30.31,West,261,4.0,5.0,80,0.00,,,0.00,Wunderground v.1.15,2013-01-14 05:13:00,
2013-01-13 23:14:00,14.7,9.6,30.31,West,261,4.0,5.0,80,0.00,,,0.00,Wunderground v.1.15,2013-01-14 05:14:00,
2013-01-13 23:20:00,14.6,9.8,30.31,West,261,4.0,7.0,81,0.00,,,0.00,Wunderground v.1.15,2013-01-14 05:20:00,
2013-01-13 23:26:00,14.6,9.8,30.31,West,271,3.0,7.0,81,0.00,,,0.00,Wunderground v.1.15,2013-01-14 05:26:00,
2013-01-13 23:32:00,14.6,9.8,30.31,WNW,294,4.0,8.0,81,0.00,,,0.00,Wunderground v.1.15,2013-01-14 05:32:00,
2013-01-13 23:38:00,14.5,9.7,30.31,West,276,3.0,3.0,81,0.00,,,0.00,Wunderground v.1.15,2013-01-14 05:38:00,
2013-01-13 23:44:00,14.5,9.7,30.31,West,271,3.0,4.0,81,0.00,,,0.00,Wunderground v.1.15,2013-01-14 05:44:00,
2013-01-13 23:50:00,14.5,9.7,30.31,West,274,3.0,3.0,81,0.00,,,0.00,Wunderground v.1.15,2013-01-14 05:50:00,
2013-01-13 23:56:00,14.4,9.6,30.31,West,269,3.0,5.0,81,0.00,,,0.00,Wunderground v.1.15,2013-01-14 05:56:00,